KD9IXX-13 Weather Reports


Display with metric or nautical units.
time (UTC)temp
F
wind
direction
speed
MPH
gust
MPH
rain 1hr
in
rain 24hr
in
rain mn
in
humidity
%
barometer
mb
20260507215002 57 243 6.0 9.0 0.00 0.00 0.00 61 1012.7
20260507214501 57 276 3.0 6.0 0.00 0.00 0.00 62 1012.5
20260507214002 57 202 4.0 10.0 0.00 0.00 0.00 62 1012.6
20260507213502 58 231 5.0 11.0 0.00 0.00 0.00 61 1012.5
20260507213002 58 212 13.0 19.0 0.00 0.00 0.00 59 1012.6
20260507212502 58 281 6.0 11.0 0.00 0.00 0.00 60 1012.7
20260507212002 57 200 7.0 10.0 0.00 0.00 0.00 62 1012.7
20260507211502 56 267 5.0 13.0 0.00 0.00 0.00 63 1012.8
20260507211002 57 214 7.0 13.0 0.00 0.00 0.00 61 1012.6
20260507210502 58 179 6.0 15.0 0.00 0.00 0.00 61 1012.7
20260507210002 58 266 4.0 10.0 0.00 0.00 0.00 60 1012.5
20260507205502 58 212 7.0 12.0 0.00 0.00 0.00 61 1012.8
20260507205002 58 216 3.0 9.0 0.00 0.00 0.00 62 1012.8
20260507204502 58 280 4.0 11.0 0.00 0.00 0.00 61 1012.8
20260507204002 58 241 6.0 7.0 0.00 0.00 0.00 60 1012.9
20260507203502 57 192 5.0 11.0 0.00 0.00 0.00 61 1013.0
20260507203002 56 203 4.0 10.0 0.00 0.00 0.00 64 1013.1
20260507202503 56 211 4.0 11.0 0.00 0.00 0.00 66 1013.4
20260507202002 56 232 5.0 7.0 0.00 0.00 0.00 65 1013.5
20260507201501 55 203 5.0 12.0 0.00 0.00 0.00 67 1013.6
20260507201002 55 246 7.0 11.0 0.00 0.00 0.00 66 1013.6
20260507200502 55 296 3.0 9.0 0.00 0.00 0.00 67 1013.7
20260507200002 55 265 6.0 11.0 0.00 0.00 0.00 66 1013.9
20260507195502 54 231 2.0 14.0 0.00 0.00 0.00 67 1014.2
20260507195002 54 279 6.0 16.0 0.00 0.00 0.00 66 1014.3
20260507194502 54 305 4.0 10.0 0.00 0.00 0.00 67 1014.3
20260507194002 53 228 9.0 11.0 0.00 0.00 0.00 70 1014.5
20260507193502 52 278 5.0 10.0 0.00 0.00 0.00 74 1014.5
20260507193001 52 236 4.0 7.0 0.00 0.00 0.00 69 1014.8
20260507192502 53 262 4.0 5.0 0.00 0.00 0.00 68 1014.6
20260507192002 53 263 8.0 13.0 0.00 0.00 0.00 65 1014.7
20260507191502 54 257 10.0 19.0 0.00 0.00 0.00 63 1014.9
20260507191002 54 271 10.0 22.0 0.00 0.00 0.00 63 1014.9
20260507190502 54 207 7.0 14.0 0.00 0.00 0.00 62 1014.8
20260507190003 54 246 5.0 15.0 0.00 0.00 0.00 62 1014.8
20260507185503 55 231 6.0 18.0 0.00 0.00 0.00 61 1014.8
20260507185001 55 216 6.0 11.0 0.00 0.00 0.00 61 1014.8
20260507184502 54 215 7.0 10.0 0.00 0.00 0.00 60 1014.7
20260507184002 55 218 10.0 15.0 0.00 0.00 0.00 57 1015.0
20260507183502 57 223 4.0 12.0 0.00 0.00 0.00 55 1014.5
20260507183001 57 196 10.0 18.0 0.00 0.00 0.00 53 1014.6
20260507182502 57 240 6.0 16.0 0.00 0.00 0.00 48 1014.3
20260507182002 58 225 9.0 13.0 0.00 0.00 0.00 48 1014.6
20260507181002 56 290 7.0 11.0 0.00 0.00 0.00 48 1014.6
20260507180502 57 260 7.0 14.0 0.00 0.00 0.00 49 1014.7
20260507180002 57 297 5.0 12.0 0.00 0.00 0.00 48 1014.9
20260507175501 56 255 4.0 10.0 0.00 0.00 0.00 49 1014.9
20260507175002 56 222 6.0 11.0 0.00 0.00 0.00 48 1015.1
20260507174502 57 303 5.0 21.0 0.00 0.00 0.00 47 1014.9
20260507174001 56 266 4.0 10.0 0.00 0.00 0.00 45 1015.0
20260507173502 57 270 2.0 6.0 0.00 0.00 0.00 46 1015.0
20260507173002 57 293 4.0 5.0 0.00 0.00 0.00 45 1014.9
20260507172502 58 235 3.0 9.0 0.00 0.00 0.00 45 1015.2
20260507172002 58 214 4.0 9.0 0.00 0.00 0.00 45 1015.3
20260507171502 59 279 4.0 10.0 0.00 0.00 0.00 45 1015.3
20260507171002 58 328 3.0 4.0 0.00 0.00 0.00 46 1015.4
20260507170501 58 285 2.0 9.0 0.00 0.00 0.00 44 1015.6
20260507170002 57 230 3.0 6.0 0.00 0.00 0.00 44 1015.5
20260507165502 58 254 4.0 7.0 0.00 0.00 0.00 45 1015.7
20260507165002 59 260 3.0 9.0 0.00 0.00 0.00 43 1015.8
20260507164502 58 257 2.0 5.0 0.00 0.00 0.00 50 1015.9
20260507164003 58 257 4.0 7.0 0.00 0.00 0.00 48 1015.8
20260507163502 57 290 3.0 10.0 0.00 0.00 0.00 47 1016.0
20260507163003 57 296 7.0 9.0 0.00 0.00 0.00 45 1016.0
20260507162502 57 254 4.0 7.0 0.00 0.00 0.00 47 1016.2
20260507162002 57 268 3.0 5.0 0.00 0.00 0.00 45 1016.2
20260507161502 56 221 5.0 11.0 0.00 0.00 0.00 50 1016.4
20260507161001 56 283 4.0 5.0 0.00 0.00 0.00 47 1016.2
20260507160502 56 196 3.0 7.0 0.00 0.00 0.00 49 1016.2
20260507160002 56 247 4.0 10.0 0.00 0.00 0.00 49 1016.5
20260507155502 55 208 4.0 7.0 0.00 0.00 0.00 49 1016.6
20260507155003 56 252 4.0 6.0 0.00 0.00 0.00 49 1016.6
20260507154502 56 275 4.0 6.0 0.00 0.00 0.00 48 1016.6
20260507154002 55 254 4.0 5.0 0.00 0.00 0.00 48 1016.6
20260507153502 55 286 1.0 4.0 0.00 0.00 0.00 52 1016.8
20260507153002 54 188 3.0 6.0 0.00 0.00 0.00 54 1016.5
20260507152502 55 275 3.0 6.0 0.00 0.00 0.00 47 1016.7
20260507152002 55 267 4.0 6.0 0.00 0.00 0.00 47 1016.9
20260507151502 54 227 3.0 5.0 0.00 0.00 0.00 51 1016.8
20260507151002 54 197 4.0 5.0 0.00 0.00 0.00 50 1016.8
20260507150501 53 284 1.0 4.0 0.00 0.00 0.00 48 1017.0
20260507150002 54 247 4.0 7.0 0.00 0.00 0.00 48 1017.2
20260507145502 53 276 3.0 4.0 0.00 0.00 0.00 50 1017.2
20260507145002 52 253 3.0 6.0 0.00 0.00 0.00 49 1016.9
20260507144502 52 291 3.0 5.0 0.00 0.00 0.00 53 1017.3
20260507144002 52 258 4.0 7.0 0.00 0.00 0.00 51 1017.2
20260507143502 52 282 2.0 5.0 0.00 0.00 0.00 55 1017.2
20260507143002 52 258 4.0 4.0 0.00 0.00 0.00 53 1017.3
20260507142502 52 240 2.0 5.0 0.00 0.00 0.00 53 1017.1
20260507142001 52 233 4.0 5.0 0.00 0.00 0.00 53 1017.2
20260507141502 51 258 2.0 4.0 0.00 0.00 0.00 53 1017.1
20260507141002 50 271 2.0 4.0 0.00 0.00 0.00 56 1017.4
20260507140502 50 204 3.0 5.0 0.00 0.00 0.00 57 1017.3
20260507135502 50 314 4.0 5.0 0.00 0.00 0.00 57 1017.5
20260507135002 50 297 2.0 7.0 0.00 0.00 0.00 58 1017.8
20260507134502 49 284 3.0 5.0 0.00 0.00 0.00 57 1017.6
20260507134001 49 287 3.0 5.0 0.00 0.00 0.00 59 1017.7
20260507133502 49 261 5.0 5.0 0.00 0.00 0.00 58 1017.6
20260507133002 48 291 2.0 3.0 0.00 0.00 0.00 61 1017.6
20260507132502 48 282 4.0 5.0 0.00 0.00 0.00 59 1017.6
20260507132002 47 280 2.0 2.0 0.00 0.00 0.00 62 1017.6
20260507131502 47 279 1.0 3.0 0.00 0.00 0.00 62 1017.7
20260507131002 47 272 2.0 4.0 0.00 0.00 0.00 59 1017.6
20260507130502 46 272 2.0 4.0 0.00 0.00 0.00 62 1017.6
20260507130001 46 269 2.0 4.0 0.00 0.00 0.00 63 1017.2
20260507125502 45 223 2.0 3.0 0.00 0.00 0.00 64 1017.3
20260507125002 45 285 1.0 3.0 0.00 0.00 0.00 66 1017.3
20260507124501 45 275 2.0 3.0 0.00 0.00 0.00 69 1017.3
20260507124002 44 289 1.0 3.0 0.00 0.00 0.00 69 1017.3
20260507123502 43 272 2.0 3.0 0.00 0.00 0.00 71 1017.4
20260507123002 42 279 2.0 3.0 0.00 0.00 0.00 71 1017.3
20260507122502 42 282 2.0 3.0 0.00 0.00 0.00 73 1017.5
20260507122002 42 249 2.0 3.0 0.00 0.00 0.00 75 1017.2
20260507121502 41 258 2.0 2.0 0.00 0.00 0.00 77 1017.3
20260507121002 40 266 2.0 3.0 0.00 0.00 0.00 81 1017.2
20260507120501 39 281 1.0 2.0 0.00 0.00 0.00 86 1017.5
20260507120002 38 285 0.0 0.0 0.00 0.00 0.00 89 1017.2
20260507115502 37 285 0.0 2.0 0.00 0.00 0.00 90 1017.4
20260507115002 36 285 0.0 0.0 0.00 0.00 0.00 92 1017.3
20260507114502 34 290 0.0 0.0 0.00 0.00 0.00 96 1017.1
20260507114002 34 292 0.0 0.0 0.00 0.00 0.00 98 1017.1
20260507113502 33 292 0.0 0.0 0.00 0.00 0.00 98 1017.1
20260507113002 33 292 0.0 0.0 0.00 0.00 0.00 99 1016.8
20260507112502 32 299 0.0 0.0 0.00 0.00 0.00 99 1017.0
20260507112002 32 287 0.0 0.0 0.00 0.00 0.00 99 1017.1
20260507111503 31 286 0.0 0.0 0.00 0.00 0.00 98 1016.7
20260507111002 32 286 0.0 0.0 0.00 0.00 0.00 98 1017.1
20260507110502 32 286 0.0 0.0 0.00 0.00 0.00 98 1017.0
20260507110002 31 286 0.0 0.0 0.00 0.00 0.00 98 1016.9
20260507105502 31 286 0.0 0.0 0.00 0.00 0.00 98 1016.9
20260507105002 31 286 0.0 0.0 0.00 0.00 0.00 97 1017.2
20260507104501 31 286 0.0 0.0 0.00 0.00 0.00 97 1017.1
20260507104002 31 286 0.0 0.0 0.00 0.00 0.00 97 1017.1
20260507103502 32 286 0.0 0.0 0.00 0.00 0.00 97 1017.3
20260507103002 32 286 0.0 0.0 0.00 0.00 0.00 97 1017.3
20260507102502 33 286 0.0 0.0 0.00 0.00 0.00 97 1017.2
20260507102001 33 286 0.0 0.0 0.00 0.00 0.00 97 1017.1
20260507101502 32 286 0.0 0.0 0.00 0.00 0.00 98 1017.2
20260507101002 32 286 0.0 0.0 0.00 0.00 0.00 97 1017.2
20260507100501 32 286 0.0 0.0 0.00 0.00 0.00 97 1017.4
20260507100002 32 286 0.0 0.0 0.00 0.00 0.00 97 1017.1
20260507095502 33 286 0.0 0.0 0.00 0.00 0.00 97 1017.3
20260507095002 33 286 0.0 0.0 0.00 0.00 0.00 98 1017.3
20260507094502 32 286 0.0 0.0 0.00 0.00 0.00 98 1017.5
20260507094002 32 286 0.0 0.0 0.00 0.00 0.00 98 1017.3
20260507093502 32 286 0.0 0.0 0.00 0.00 0.00 98 1017.5
20260507093002 32 286 0.0 0.0 0.00 0.00 0.00 98 1017.2
20260507092502 32 286 0.0 0.0 0.00 0.00 0.00 98 1017.3
20260507092002 32 286 0.0 2.0 0.00 0.00 0.00 98 1017.5
20260507091502 32 287 0.0 0.0 0.00 0.00 0.00 97 1017.5
20260507091002 32 287 0.0 0.0 0.00 0.00 0.00 97 1017.4
20260507090502 33 287 0.0 0.0 0.00 0.00 0.00 98 1017.4
20260507090002 33 287 0.0 0.0 0.00 0.00 0.00 97 1017.3
20260507085502 33 287 0.0 0.0 0.00 0.00 0.00 97 1016.9
20260507085002 33 287 0.0 0.0 0.00 0.00 0.00 97 1017.2
20260507084502 32 287 0.0 0.0 0.00 0.00 0.00 97 1017.3
20260507084001 33 287 0.0 0.0 0.00 0.00 0.00 97 1017.4
20260507083502 33 287 0.0 0.0 0.00 0.00 0.00 97 1017.5
20260507083002 33 287 0.0 0.0 0.00 0.00 0.00 97 1017.2
20260507082502 33 287 0.0 0.0 0.00 0.00 0.00 97 1017.6
20260507082002 32 287 0.0 0.0 0.00 0.00 0.00 96 1017.4
20260507081502 32 287 0.0 0.0 0.00 0.00 0.00 96 1017.5
20260507081002 32 287 0.0 0.0 0.00 0.00 0.00 96 1017.3
20260507080501 33 287 0.0 0.0 0.00 0.00 0.00 96 1017.4
20260507080003 34 286 0.0 0.0 0.00 0.00 0.00 96 1017.4
20260507075501 34 286 0.0 0.0 0.00 0.00 0.00 96 1017.3
20260507075002 34 286 0.0 0.0 0.00 0.00 0.00 97 1017.3
20260507074502 34 287 0.0 0.0 0.00 0.00 0.00 97 1017.1
20260507074002 34 286 0.0 0.0 0.00 0.00 0.00 97 1017.3
20260507073502 34 286 0.0 0.0 0.00 0.00 0.00 97 1017.2
20260507073002 33 287 0.0 0.0 0.00 0.00 0.00 96 1017.2
20260507072502 34 287 0.0 0.0 0.00 0.00 0.00 96 1017.4
20260507072002 33 287 0.0 0.0 0.00 0.00 0.00 96 1017.3
20260507071503 33 287 0.0 0.0 0.00 0.00 0.00 95 1017.3
20260507071002 33 287 0.0 0.0 0.00 0.00 0.00 95 1017.3
20260507070501 33 287 0.0 0.0 0.00 0.00 0.00 95 1017.5
20260507070005 33 287 0.0 0.0 0.00 0.00 0.00 95 1017.3
20260507065502 33 287 0.0 0.0 0.00 0.00 0.00 94 1017.4
20260507065002 34 287 0.0 0.0 0.00 0.00 0.00 94 1017.4
20260507064502 34 287 0.0 0.0 0.00 0.00 0.00 95 1017.6
20260507064002 33 287 0.0 0.0 0.00 0.00 0.00 95 1017.6
20260507063502 32 287 0.0 0.0 0.00 0.00 0.00 94 1017.3
20260507063002 33 287 0.0 0.0 0.00 0.00 0.00 93 1017.3
20260507062502 33 287 0.0 0.0 0.00 0.00 0.00 93 1017.4
20260507062002 33 287 0.0 0.0 0.00 0.00 0.00 92 1017.5
20260507061502 33 287 0.0 0.0 0.00 0.00 0.00 91 1017.7
20260507061001 34 287 0.0 0.0 0.00 0.00 0.00 90 1017.5
20260507060502 33 287 0.0 0.0 0.00 0.00 0.00 88 1017.6
20260507060002 33 287 0.0 0.0 0.00 0.00 0.00 87 1017.8
20260507055502 34 287 0.0 0.0 0.00 0.00 0.00 87 1017.5
20260507055002 34 287 0.0 0.0 0.00 0.00 0.00 86 1017.8
20260507054502 34 287 0.0 0.0 0.00 0.00 0.00 85 1017.6
20260507054002 34 287 0.0 0.0 0.00 0.00 0.00 86 1017.6
20260507053502 34 287 0.0 0.0 0.00 0.00 0.00 85 1017.8
20260507053002 34 287 0.0 0.0 0.00 0.00 0.00 85 1017.7
20260507052502 35 287 0.0 0.0 0.00 0.00 0.00 84 1017.9
20260507052002 35 287 0.0 0.0 0.00 0.00 0.00 83 1017.8
20260507051502 35 287 0.0 0.0 0.00 0.00 0.00 82 1017.8
20260507051002 36 287 0.0 0.0 0.00 0.00 0.00 82 1017.7
20260507050502 35 287 0.0 0.0 0.00 0.00 0.00 83 1017.5
20260507050002 35 287 0.0 0.0 0.00 0.00 0.00 84 1017.5
20260507045502 35 287 0.0 0.0 0.00 0.00 0.00 85 1017.7
20260507045001 35 287 0.0 0.0 0.00 0.00 0.00 85 1017.7
20260507044502 34 287 0.0 0.0 0.00 0.00 0.00 84 1017.6
20260507044002 34 287 0.0 0.0 0.00 0.00 0.00 84 1017.7
20260507043502 35 287 0.0 0.0 0.00 0.00 0.00 84 1017.6
20260507043001 35 287 0.0 0.0 0.00 0.00 0.00 83 1017.6
20260507042502 35 287 0.0 0.0 0.00 0.00 0.00 83 1017.6
20260507042002 35 287 0.0 0.0 0.00 0.00 0.00 82 1017.7
20260507041502 35 287 0.0 0.0 0.00 0.00 0.00 82 1017.6
20260507041001 36 287 0.0 0.0 0.00 0.00 0.00 81 1017.5
20260507040502 36 287 0.0 0.0 0.00 0.00 0.00 80 1017.6
20260507040002 36 287 0.0 0.0 0.00 0.00 0.00 78 1017.5
20260507035502 37 287 0.0 0.0 0.00 0.00 0.00 76 1017.7
20260507035002 37 286 0.0 0.0 0.00 0.00 0.00 74 1017.6
20260507034502 38 286 0.0 0.0 0.00 0.00 0.00 72 1017.5
20260507034002 39 286 0.0 0.0 0.00 0.00 0.00 71 1017.7
20260507033502 40 286 0.0 0.0 0.00 0.00 0.00 69 1017.8
20260507033002 40 286 0.0 0.0 0.00 0.00 0.00 68 1017.7
20260507032501 41 285 0.0 0.0 0.00 0.00 0.00 66 1017.6
20260507032002 41 286 0.0 0.0 0.00 0.00 0.00 66 1017.6
20260507031502 42 286 0.0 2.0 0.00 0.00 0.00 64 1017.5
20260507031002 42 292 1.0 2.0 0.00 0.00 0.00 64 1017.6
20260507030502 42 294 0.0 0.0 0.00 0.00 0.00 64 1017.5
20260507030002 42 295 0.0 0.0 0.00 0.00 0.00 63 1017.6
20260507025502 42 295 0.0 0.0 0.00 0.00 0.00 62 1017.5
20260507025002 43 293 0.0 0.0 0.00 0.00 0.00 61 1017.6
20260507024502 44 294 0.0 0.0 0.00 0.00 0.00 59 1017.3
20260507024002 44 295 0.0 2.0 0.00 0.00 0.00 58 1017.2
20260507023502 45 296 0.0 2.0 0.00 0.00 0.00 57 1017.5
20260507023003 45 295 1.0 2.0 0.00 0.00 0.00 56 1017.5
20260507022502 45 301 1.0 2.0 0.00 0.00 0.00 56 1017.2
20260507022002 46 291 1.0 2.0 0.00 0.00 0.00 55 1017.0
20260507021502 46 300 2.0 4.0 0.00 0.00 0.00 53 1017.3
20260507021002 47 308 2.0 3.0 0.00 0.00 0.00 52 1017.0
20260507020501 47 298 4.0 6.0 0.00 0.00 0.00 52 1017.0
20260507020002 47 300 3.0 10.0 0.00 0.00 0.00 51 1016.8
20260507015502 47 344 5.0 9.0 0.00 0.00 0.00 51 1016.8
20260507015002 47 323 4.0 5.0 0.00 0.00 0.00 52 1016.7
20260507014502 47 292 2.0 7.0 0.00 0.00 0.00 51 1016.6
20260507014003 47 298 3.0 5.0 0.00 0.00 0.00 53 1016.7
20260507013502 48 295 2.0 3.0 0.00 0.00 0.00 53 1016.5
20260507013002 48 318 3.0 4.0 0.00 0.00 0.00 51 1016.4
20260507012502 48 357 3.0 9.0 0.00 0.00 0.00 51 1016.4
20260507012002 49 307 1.0 4.0 0.00 0.00 0.00 51 1016.3
20260507011502 49 295 3.0 9.0 0.00 0.00 0.00 50 1016.5
20260507011002 49 273 2.0 5.0 0.00 0.00 0.00 49 1016.5
20260507010502 49 302 4.0 6.0 0.00 0.00 0.00 50 1016.4
20260507010002 49 300 4.0 9.0 0.00 0.00 0.00 50 1016.3
20260507005502 50 2 2.0 6.0 0.00 0.00 0.00 50 1016.3
20260507005001 50 295 3.0 10.0 0.00 0.00 0.00 48 1016.3
20260507004502 50 319 6.0 10.0 0.00 0.00 0.00 47 1016.2
20260507004002 50 289 3.0 7.0 0.00 0.00 0.00 48 1016.3
20260507003502 51 328 5.0 7.0 0.00 0.00 0.00 47 1016.3
20260507003002 51 338 7.0 9.0 0.00 0.00 0.00 47 1016.4
20260507002501 52 337 4.0 7.0 0.00 0.00 0.00 47 1016.2
20260507002002 52 312 10.0 12.0 0.00 0.00 0.00 45 1016.1
20260507001502 52 289 6.0 11.0 0.00 0.00 0.00 45 1015.8
20260507001002 53 299 4.0 11.0 0.00 0.00 0.00 44 1015.9
20260507000502 53 259 3.0 6.0 0.00 0.00 0.00 44 1016.1
20260507000003 53 333 3.0 16.0 0.00 0.00 0.00 45 1016.1
20260506235502 52 297 3.0 9.0 0.00 0.00 0.00 46 1015.8
20260506235002 52 287 4.0 9.0 0.00 0.00 0.00 46 1015.7
20260506234502 53 268 6.0 11.0 0.00 0.00 0.00 45 1016.0
20260506234002 54 317 6.0 9.0 0.00 0.00 0.00 46 1015.5
20260506233502 54 322 4.0 7.0 0.00 0.00 0.00 44 1015.6
20260506233002 55 272 4.0 7.0 0.00 0.00 0.00 44 1015.5
20260506232502 55 313 4.0 5.0 0.00 0.00 0.00 44 1015.6
20260506232002 54 305 2.0 7.0 0.00 0.00 0.00 44 1015.6
20260506231502 54 309 7.0 13.0 0.00 0.00 0.00 42 1015.7
20260506231002 54 315 5.0 11.0 0.00 0.00 0.00 43 1015.5
20260506230502 54 30 7.0 11.0 0.00 0.00 0.00 43 1015.4
20260506230002 53 275 6.0 10.0 0.00 0.00 0.00 44 1015.3
20260506225502 54 293 4.0 9.0 0.00 0.00 0.00 44 1015.4
20260506225002 54 286 8.0 12.0 0.00 0.00 0.00 44 1015.1
20260506224502 56 290 4.0 15.0 0.00 0.00 0.00 43 1015.3
20260506224002 56 282 8.0 13.0 0.00 0.00 0.00 41 1015.3
20260506223502 55 301 5.0 11.0 0.00 0.00 0.00 43 1015.3
20260506223001 55 259 13.0 16.0 0.00 0.00 0.00 41 1015.3
20260506222502 55 287 8.0 16.0 0.00 0.00 0.00 42 1015.4
20260506222002 55 278 8.0 13.0 0.00 0.00 0.00 42 1015.3
20260506221502 54 277 9.0 14.0 0.00 0.00 0.00 43 1015.2
20260506221002 55 262 6.0 16.0 0.00 0.00 0.00 43 1015.3
20260506220502 56 247 14.0 18.0 0.00 0.00 0.00 41 1015.5
20260506220002 56 240 7.0 14.0 0.00 0.00 0.00 42 1015.2
20260506215503 55 280 10.0 14.0 0.00 0.00 0.00 41 1015.3